This is the latest recevied weather packets stored in our database for station/object KC1TEM-13. If no packets are shown the sender has not sent any weather packets the latest 10 day(s).
| Time | Temp. | Humidity | Pressure | Rain* | Wind** | Luminosity | Snow |
|---|---|---|---|---|---|---|---|
| 1777732563 | 8.33° C | 86% | 1012.7 hPa | 0 mm | - | 284 W/m² | - |
| 1777732261 | 8.33° C | 89% | 1012.9 hPa | 0 mm | - | 274 W/m² | - |
| 1777731958 | 8.33° C | 90% | 1012.9 hPa | 0 mm | - | 227 W/m² | - |
| 1777731654 | 7.78° C | 89% | 1013 hPa | 0 mm | - | 173 W/m² | - |
| 1777731352 | 7.78° C | 90% | 1013 hPa | 0 mm | - | 160 W/m² | - |
| 1777731049 | 7.78° C | 90% | 1013 hPa | 0 mm | - | 188 W/m² | - |
| 1777730748 | 7.78° C | 90% | 1012.9 hPa | 0 mm | - | 160 W/m² | - |
| 1777730444 | 7.22° C | 90% | 1013 hPa | 0 mm | - | 181 W/m² | - |
| 1777730139 | 7.22° C | 91% | 1012.9 hPa | 0 mm | - | 150 W/m² | - |
| 1777729837 | 7.22° C | 91% | 1012.7 hPa | 0 mm | - | 140 W/m² | - |
| 1777729533 | 7.22° C | 92% | 1012.9 hPa | 0 mm | - | 116 W/m² | - |
| 1777729230 | 7.22° C | 91% | 1012.7 hPa | 0 mm | - | 127 W/m² | - |
| 1777728927 | 7.22° C | 92% | 1012.8 hPa | 0 mm | - | 118 W/m² | - |
| 1777728624 | 7.22° C | 93% | 1012.8 hPa | 0.51 mm | - | 181 W/m² | - |
| 1777728321 | 7.22° C | 94% | 1012.8 hPa | 0.51 mm | - | 130 W/m² | - |
| 1777728018 | 6.67° C | 94% | 1012.9 hPa | 0.51 mm | - | 234 W/m² | - |
| 1777727715 | 6.67° C | 94% | 1013.1 hPa | 1.78 mm | - | 127 W/m² | - |
| 1777727412 | 6.67° C | 93% | 1013.1 hPa | 4.83 mm | - | 88 W/m² | - |
| 1777727109 | 6.67° C | 93% | 1013.2 hPa | 4.32 mm | - | 40 W/m² | - |
| 1777726807 | 6.67° C | 93% | 1013.1 hPa | 2.29 mm | - | 22 W/m² | - |
| 1777726503 | 6.67° C | 92% | 1012.9 hPa | 3.56 mm | - | 27 W/m² | - |
| 1777726201 | 6.67° C | 92% | 1013 hPa | 3.56 mm | - | 31 W/m² | - |
| 1777725897 | 6.67° C | 92% | 1013 hPa | 1.78 mm | - | 36 W/m² | - |
| 1777725594 | 6.67° C | 92% | 1013.1 hPa | 1.27 mm | - | 32 W/m² | - |
| 1777725292 | 6.67° C | 91% | 1012.8 hPa | 0 mm | - | 37 W/m² | - |
* Rain latest hour (hover to see other rain measurements)
** Current wind speed in m/s (hover to see current wind gust speed)